Wind_Speed
5 6 6 6 6 6 5 4 4 4 3 3 3 2 1 1 1 2 2 3 3 4 4 4 4 5 5 6 6 6 6 7 7 7 8 9 8 9 9 9 9 10 10
5 5 5 5 5 5 4 4 3 3 2 2 2 2 2 2 2 3 3 4 5 5 6 6 6 7 7 7 7 7 7 8 8 9 9 10 10 10 11 11 12 11 11
4 5 5 5 4 3 3 3 2 2 1 1 2 2 2 2 3 4 5 5 6 6 7 7 8 8 8 8 8 9 9 9 9 10 10 11 12 12 13 13 14 13 13
6 5 5 4 4 3 2 2 1 1 0 1 2 3 3 3 3 5 5 6 7 7 8 8 8 9 9 9 10 10 10 11 11 12 13 13 13 14 15 15 15 15 15
7 6 5 4 3 2 2 1 1 0 1 2 2 2 3 4 5 6 6 7 7 8 8 9 9 10 10 11 11 11 12 13 13 14 14 14 14 15 15 16 16 16 16
7 6 5 5 3 2 2 1 2 2 2 2 2 3 4 4 5 6 7 8 8 8 9 9 10 11 11 12 12 12 13 13 14 15 15 15 16 16 17 16 17 17 17
6 6 5 4 4 4 3 3 3 3 3 3 4 4 5 5 6 7 8 8 9 9 9 10 11 12 12 12 13 13 13 14 15 16 16 16 16 16 16 16 16 16 16
6 6 5 4 3 3 3 3 3 3 4 4 5 5 6 7 8 9 9 10 10 11 11 11 12 13 13 13 14 15 15 16 16 16 16 16 16 17 16 16 17 17 18
6 5 5 4 3 3 3 3 3 4 5 6 6 6 7 8 9 9 10 11 11 12 12 12 13 13 13 13 14 15 16 16 16 16 17 17 17 17 18 17 18 18 17
6 5 5 4 4 3 3 4 4 5 6 6 7 7 8 8 9 9 10 11 11 12 12 13 13 13 14 14 15 16 16 16 16 16 16 17 17 17 18 18 18 18 18
6 5 5 4 4 5 5 5 6 6 7 7 8 8 9 9 9 10 10 11 11 12 12 13 13 13 15 15 15 15 15 16 16 16 17 16 16 17 17 17 18 18 18
5 5 5 5 5 5 6 7 7 8 8 8 8 9 10 10 10 11 10 11 11 12 12 13 13 13 14 15 14 15 16 15 15 16 16 15 15 16 16 17 18 19 20
6 5 5 6 6 6 7 8 8 8 8 9 9 10 11 11 11 11 11 11 12 13 14 14 14 14 14 15 15 16 16 16 15 16 16 16 16 17 17 18 19 20 21
7 7 7 7 7 8 9 9 9 9 9 10 10 11 11 12 12 12 12 13 13 14 15 16 15 15 16 16 16 16 17 16 16 16 16 16 17 17 18 19 20 21 21
8 8 8 8 9 9 10 10 10 10 10 10 10 11 12 13 13 13 13 14 15 15 16 16 16 16 17 17 17 17 17 16 16 16 17 17 18 18 19 20 21 22 23
8 9 9 9 10 10 11 11 11 11 10 10 11 12 13 13 14 14 14 15 15 16 16 16 16 16 16 17 18 17 17 17 17 17 17 18 19 19 20 21 22 23 23
9 9 9 10 10 11 11 12 12 12 11 11 12 13 13 14 14 15 15 15 15 16 16 16 16 17 17 18 18 17 17 18 18 18 19 19 19 20 21 22 23 23 23
10 10 10 11 11 12 13 13 13 12 12 13 13 13 14 15 15 15 16 16 17 17 16 16 17 18 18 19 18 18 18 19 19 19 20 20 21 22 22 23 23 24 24
11 11 11 12 12 13 14 14 14 13 14 14 14 14 15 16 16 16 17 17 17 17 18 18 18 19 19 19 19 19 19 19 20 21 22 22 22 23 23 24 24 25 25
12 12 13 14 14 14 14 14 14 14 14 14 15 15 16 16 17 17 17 17 18 18 18 19 19 19 19 19 20 20 20 21 21 21 22 22 23 24 24 25 25 26 26
13 14 14 14 14 15 15 15 15 16 16 16 16 17 17 18 18 18 18 18 19 19 19 19 19 19 20 20 20 21 21 22 23 23 23 23 23 24 24 25 25 26 26
14 15 15 15 15 16 16 16 17 17 18 18 18 18 19 19 19 19 19 20 20 21 21 21 20 20 21 21 22 22 23 23 23 23 24 23 24 24 24 24 25 26 26
15 16 15 16 16 17 18 18 19 19 20 20 20 20 20 21 21 20 21 21 22 22 22 21 21 21 22 23 24 24 24 24 25 24 24 24 24 24 25 25 26 26 26
17 17 17 17 18 19 19 20 20 21 21 21 21 21 21 21 21 21 22 22 22 22 22 22 23 24 24 25 25 25 25 25 25 25 25 25 25 26 26 26 26 26 26
19 19 19 19 20 20 21 21 22 22 22 22 22 22 22 22 22 21 22 22 21 21 22 22 24 25 25 25 26 26 27 26 26 26 26 26 26 26 26 26 26 26 26
21 21 20 21 21 21 22 22 23 23 23 23 22 22 22 22 22 22 22 22 23 23 23 23 24 25 26 26 26 27 27 27 27 27 26 26 26 26 26 25 25 26 26
Wind_Direction
114 123 130 135 135 134 135 139 148 157 164 177 184 189 191 217 274 273 280 281 275 279 285 288 284 284 283 285 293 292 286 280 281 286 285 281 276 272 271 273 275 271 268
105 113 125 130 130 134 135 129 132 150 152 169 208 231 241 253 265 280 290 286 282 280 280 280 280 282 285 287 287 290 288 284 279 283 285 283 276 273 271 270 271 269 267
100 107 114 119 123 132 131 126 117 131 163 224 254 256 274 273 284 291 292 291 289 286 284 282 280 283 286 289 290 289 289 286 282 285 287 285 279 275 273 273 270 268 267
96 104 115 118 118 120 120 120 116 115 287 301 280 260 273 282 289 293 294 292 292 294 293 287 281 282 286 288 291 291 289 287 285 285 285 287 283 277 275 276 274 269 268
86 91 100 110 113 113 114 100 67 44 328 315 300 281 286 292 296 295 299 298 297 296 295 290 288 284 285 288 290 290 291 287 287 287 287 287 285 286 280 278 274 272 271
77 78 78 86 78 73 68 56 25 7 350 320 306 301 297 296 297 298 300 303 304 301 298 291 292 293 291 291 291 291 292 289 286 287 288 288 289 289 285 283 279 274 273
67 67 67 68 60 51 43 32 12 358 351 343 326 309 303 300 301 302 300 301 301 300 296 291 292 294 291 290 291 293 293 293 291 289 289 288 288 290 287 284 283 281 280
57 57 54 56 48 41 34 28 19 360 348 335 326 318 310 305 304 304 302 301 300 302 299 297 296 294 290 291 292 293 292 291 293 290 288 289 289 287 286 285 285 283 281
46 45 41 38 31 27 19 13 4 352 348 342 334 328 319 311 309 304 302 302 301 304 303 301 300 298 297 297 295 296 297 297 296 292 288 289 289 285 284 284 284 283 282
38 36 30 28 24 17 6 355 354 348 342 336 331 328 325 320 316 312 308 304 304 304 304 305 306 302 304 304 300 298 297 298 297 294 291 290 287 284 286 287 284 284 285
32 27 20 13 12 6 356 344 338 335 332 331 329 327 323 321 317 313 312 310 309 308 309 308 308 305 305 304 304 301 299 298 298 295 295 290 290 289 291 291 288 286 286
17 13 6 360 355 349 345 341 334 330 329 327 326 325 325 320 321 319 314 312 309 308 308 308 307 306 304 304 304 304 304 303 302 299 295 293 291 291 291 292 290 288 287
2 357 352 350 344 338 338 334 329 327 326 326 326 325 325 324 322 321 318 315 311 309 308 308 307 306 306 305 303 304 306 305 304 302 298 296 296 294 294 295 294 293 292
4 5 0 356 350 343 339 337 332 327 325 324 325 324 323 323 324 323 320 317 315 312 310 308 308 306 306 306 303 303 302 302 304 304 300 297 298 298 297 297 297 295 295
359 358 354 352 346 340 338 336 331 326 324 323 325 324 322 321 323 322 321 318 316 312 310 309 308 308 307 307 306 304 303 302 302 301 302 302 301 299 297 296 295 294 294
349 350 348 346 344 342 340 337 335 331 326 325 326 324 323 324 324 323 323 319 316 315 313 311 310 310 310 310 309 305 303 303 302 302 305 305 302 299 298 297 295 294 294
339 340 340 340 339 337 337 336 334 334 329 327 326 325 325 325 324 323 322 322 321 318 316 314 312 311 311 310 308 305 304 304 303 303 304 306 306 303 301 299 298 297 296
332 333 333 333 333 332 331 331 330 329 328 327 327 327 326 326 324 322 321 321 321 320 318 315 312 311 311 311 309 307 305 303 303 303 304 304 305 304 303 302 300 299 297
323 325 327 327 328 329 330 330 328 327 326 325 325 326 326 325 324 322 321 320 319 319 318 316 315 315 313 312 311 310 308 305 305 304 304 304 303 303 303 302 301 300 298
323 322 322 321 322 324 326 327 326 324 323 324 324 325 325 324 323 322 321 319 318 317 317 317 317 317 317 315 313 313 310 309 308 306 305 306 305 304 304 304 303 302 301
319 321 320 321 322 323 324 325 324 323 321 321 321 321 322 323 322 320 319 318 317 315 314 315 315 315 315 316 314 314 313 312 311 310 310 309 308 306 305 305 305 303 302
312 315 318 320 322 322 323 323 321 321 319 318 318 318 319 319 320 318 317 316 314 314 314 313 313 313 313 314 314 314 313 312 312 312 312 310 309 308 308 307 306 305 305
308 310 315 318 319 319 319 319 319 319 318 317 317 317 316 316 316 316 315 315 314 313 312 312 311 310 311 312 313 312 312 312 310 310 311 312 310 309 309 308 307 306 306
305 306 309 311 316 317 317 317 316 316 316 315 315 315 316 315 313 313 313 313 313 312 312 311 310 309 310 310 310 310 309 309 310 311 311 310 309 308 308 307 307 307 306
302 303 305 308 311 312 315 315 315 315 315 314 313 313 314 316 315 314 315 315 314 313 312 310 310 309 309 308 307 308 309 308 309 309 309 310 309 308 308 309 308 308 308
297 298 301 304 307 309 310 311 313 313 314 313 312 312 313 313 314 313 313 314 314 311 309 309 310 309 308 307 307 307 307 307 308 309 310 309 309 309 308 308 308 308 308
Height
5886 5887 5888 5888 5889 5890 5891 5892 5892 5893 5894 5894 5895 5896 5896 5897 5897 5898 5898 5898 5898 5898 5898 5898 5898 5898 5898 5898 5898 5897 5897 5897 5897 5897 5897 5896 5896 5896 5896 5896 5896 5896 5896
5887 5888 5889 5889 5890 5891 5892 5892 5893 5893 5893 5894 5895 5895 5896 5896 5897 5897 5897 5897 5897 5897 5897 5897 5897 5897 5897 5896 5896 5896 5896 5896 5895 5895 5895 5894 5894 5894 5894 5894 5894 5894 5894
5888 5889 5889 5890 5891 5891 5892 5893 5893 5893 5893 5894 5894 5895 5895 5896 5896 5896 5896 5896 5896 5896 5896 5895 5895 5895 5895 5895 5894 5894 5894 5893 5893 5893 5893 5892 5892 5892 5891 5891 5891 5891 5891
5889 5890 5890 5891 5892 5892 5892 5893 5893 5894 5894 5894 5894 5894 5895 5895 5895 5895 5895 5895 5895 5895 5894 5894 5893 5893 5893 5893 5892 5892 5892 5891 5891 5891 5890 5890 5889 5889 5889 5888 5888 5888 5888
5891 5891 5891 5892 5892 5893 5893 5893 5893 5893 5893 5893 5893 5894 5894 5894 5894 5894 5893 5893 5893 5893 5892 5892 5892 5891 5891 5891 5890 5890 5889 5889 5889 5888 5887 5887 5886 5886 5885 5885 5884 5884 5884
5892 5892 5892 5892 5893 5893 5893 5893 5893 5893 5893 5893 5893 5893 5893 5893 5893 5892 5892 5892 5892 5891 5890 5890 5890 5889 5889 5888 5888 5888 5887 5886 5886 5885 5884 5884 5883 5883 5882 5881 5881 5880 5880
5894 5893 5894 5893 5893 5893 5893 5893 5893 5893 5893 5893 5893 5892 5892 5892 5892 5891 5891 5890 5890 5889 5889 5888 5887 5887 5887 5886 5886 5885 5884 5883 5882 5882 5881 5880 5880 5879 5878 5877 5877 5876 5875
5895 5895 5895 5894 5894 5894 5894 5894 5894 5893 5893 5893 5892 5892 5891 5892 5890 5890 5889 5888 5887 5887 5886 5886 5885 5885 5884 5883 5883 5882 5881 5880 5879 5878 5877 5877 5876 5875 5874 5874 5873 5872 5871
5896 5896 5896 5895 5895 5895 5894 5894 5894 5893 5893 5892 5892 5891 5891 5890 5889 5888 5887 5886 5885 5885 5884 5883 5882 5881 5880 5880 5879 5878 5877 5876 5875 5875 5874 5873 5872 5871 5870 5870 5869 5868 5867
5897 5897 5897 5896 5896 5895 5895 5894 5894 5893 5892 5892 5891 5890 5890 5889 5888 5887 5886 5884 5883 5882 5882 5881 5880 5879 5878 5877 5876 5875 5874 5873 5872 5871 5870 5869 5868 5867 5866 5865 5864 5864 5863
5898 5898 5897 5897 5896 5896 5895 5894 5893 5893 5892 5891 5890 5889 5888 5887 5886 5885 5884 5882 5881 5880 5879 5878 5877 5876 5875 5873 5872 5871 5870 5869 5868 5866 5865 5864 5864 5863 5862 5861 5860 5859 5858
5899 5898 5898 5897 5896 5896 5895 5894 5893 5892 5891 5890 5889 5888 5886 5885 5884 5883 5882 5880 5879 5878 5877 5876 5874 5873 5872 5871 5869 5868 5866 5865 5864 5863 5861 5860 5859 5858 5857 5856 5855 5854 5853
5899 5898 5898 5897 5896 5895 5894 5893 5892 5891 5890 5889 5887 5886 5885 5883 5882 5880 5879 5878 5876 5875 5874 5873 5871 5870 5869 5867 5866 5864 5863 5862 5860 5859 5857 5856 5855 5854 5853 5852 5850 5849 5848
5900 5898 5898 5897 5896 5895 5894 5892 5891 5890 5888 5887 5886 5884 5883 5881 5879 5878 5877 5875 5873 5872 5871 5870 5868 5867 5865 5864 5862 5861 5859 5858 5856 5855 5853 5852 5850 5849 5848 5847 5845 5844 5842
5900 5899 5898 5897 5895 5894 5893 5891 5890 5888 5887 5885 5884 5883 5881 5879 5877 5876 5874 5873 5871 5869 5868 5866 5865 5863 5861 5860 5858 5857 5855 5853 5852 5851 5849 5847 5846 5844 5843 5842 5840 5838 5836
5900 5899 5897 5896 5895 5893 5892 5890 5888 5887 5885 5884 5882 5881 5879 5877 5875 5873 5872 5870 5868 5867 5865 5863 5861 5859 5858 5856 5854 5853 5851 5850 5848 5846 5845 5843 5841 5839 5838 5836 5834 5832 5830
5900 5898 5897 5895 5894 5892 5891 5889 5887 5885 5884 5882 5880 5879 5877 5875 5873 5871 5869 5867 5865 5863 5862 5860 5857 5856 5854 5852 5850 5848 5847 5845 5843 5842 5840 5838 5836 5834 5832 5831 5828 5826 5824
5899 5897 5896 5894 5893 5891 5889 5888 5886 5884 5882 5880 5878 5876 5874 5872 5870 5868 5866 5864 5862 5860 5858 5856 5854 5852 5850 5848 5846 5843 5843 5841 5839 5837 5834 5832 5831 5829 5827 5824 5822 5820 5818
5897 5896 5894 5893 5891 5889 5888 5886 5884 5882 5880 5878 5876 5874 5872 5870 5868 5866 5864 5861 5859 5857 5855 5853 5851 5849 5846 5844 5842 5840 5838 5836 5834 5832 5829 5827 5825 5823 5821 5818 5816 5813 5811
5896 5894 5893 5891 5889 5888 5885 5883 5881 5880 5878 5876 5874 5872 5869 5867 5865 5863 5861 5858 5856 5854 5851 5849 5847 5845 5842 5840 5838 5836 5833 5831 5829 5827 5824 5822 5819 5817 5814 5812 5809 5807 5804
5894 5892 5891 5889 5887 5885 5883 5881 5879 5877 5875 5873 5871 5869 5867 5864 5862 5859 5857 5855 5852 5850 5848 5845 5843 5841 5838 5836 5834 5831 5828 5826 5824 5821 5819 5816 5813 5811 5808 5805 5803 5800 5797
5891 5890 5889 5887 5885 5883 5881 5879 5877 5875 5872 5870 5868 5866 5863 5861 5858 5856 5853 5851 5848 5846 5843 5841 5839 5837 5834 5832 5829 5826 5824 5821 5819 5816 5813 5811 5808 5805 5802 5799 5796 5793 5790
5889 5887 5886 5884 5882 5880 5878 5876 5874 5871 5869 5867 5864 5862 5859 5857 5854 5851 5849 5846 5843 5841 5839 5836 5834 5832 5829 5827 5824 5821 5819 5816 5813 5810 5807 5804 5802 5799 5796 5793 5790 5786 5783
5886 5884 5882 5881 5879 5877 5875 5872 5870 5867 5865 5862 5860 5858 5855 5852 5849 5847 5844 5841 5838 5836 5834 5831 5829 5827 5824 5821 5819 5816 5813 5810 5807 5804 5801 5799 5796 5793 5789 5786 5783 5780 5777
5882 5880 5879 5876 5875 5873 5871 5868 5866 5863 5861 5858 5855 5853 5850 5847 5845 5842 5839 5836 5834 5831 5828 5826 5824 5821 5818 5816 5813 5810 5807 5804 5801 5799 5796 5792 5789 5786 5783 5779 5776 5773 5770
5877 5876 5874 5873 5871 5868 5866 5864 5861 5859 5856 5854 5851 5848 5845 5842 5840 5837 5834 5831 5829 5826 5823 5820 5818 5815 5812 5809 5807 5804 5801 5798 5795 5792 5789 5786 5783 5779 5776 5773 5770 5767 5763